Sharm El Sheikh, Egypt

8:56 PM EET on May 29, 2017 (GMT +0200)
Sharm El Sheikh

Weather History for HESH - March, 2013

Change the Weather History Date:

Saturday, March 9, 2013

  Actual Average Record
Temperature  
Mean Temperature 76 °F -  
Max Temperature 89 °F 80 °F - ()
Min Temperature 64 °F 63 °F - ()
Cooling Degree Days 12    
Growing Degree Days 26 (Base 50)    
Moisture  
Dew Point 44 °F    
Average Humidity 40    
Maximum Humidity 78    
Minimum Humidity 14    
Precipitation  
Precipitation 0.00 in 0.00 in - ()
Sea Level Pressure  
Sea Level Pressure 29.83 in    
Wind  
Wind Speed 6 mph ()    
Max Wind Speed 12 mph    
Max Gust Speed -    
Visibility 2.3 miles    
Events      
T = Trace of Precipitation, MM = Missing Value Source: Averaged Metar Reports

Daily Weather History Graph

Daily Weather History Graph

Search for Another Location

Airport or City:

Trip Planner

Search our weather history database for the weather conditions in past years. The results will help you decide how hot, cold, wet, or windy it might be!

Date:

Astronomy

Mar. 09, 2013 Rise Set
Actual Time 5:58 AM EET 5:47 PM EET
Civil Twilight 5:35 AM EET 6:11 PM EET
Nautical Twilight 5:08 AM EET 6:38 PM EET
Astronomical Twilight 4:40 AM EET 7:05 PM EET
Moon 3:58 AM EET (3/9) 3:35 PM EET (3/9)
Length of Visible Light 12h 35m
Length of Day
11h 48m
Waning Crescent, 7% of the Moon is Illuminated
Mar 9
Waning Crescent
Mar 11
New
Mar 19
First Quarter
Mar 27
Full
Apr 3
Last Quarter

Hourly Weather History & Observations

Time (EET) Temp. Dew Point Humidity Pressure Visibility Wind Dir Wind Speed Gust Speed Precip Events Conditions
12:00 AM 68.0 °F 51.8 °F 56% 29.80 in - North 5.8 mph - N/A   Clear
1:00 AM 66.2 °F 51.8 °F 60% 29.80 in - North 8.1 mph - N/A   Clear
2:00 AM 68.0 °F 57.2 °F 68% 29.80 in - North 9.2 mph - N/A   Clear
3:00 AM 66.2 °F 59.0 °F 78% 29.77 in - North 3.5 mph - N/A   Clear
4:00 AM 64.4 °F 57.2 °F 77% 29.77 in - NNW 5.8 mph - N/A   Clear
5:00 AM 66.2 °F 55.4 °F 68% 29.80 in - NNW 4.6 mph - N/A   Clear
6:00 AM 64.4 °F 53.6 °F 68% 29.80 in - WNW 3.5 mph - N/A   Clear
7:00 AM 66.2 °F 53.6 °F 64% 29.83 in - NW 3.5 mph - N/A   Clear
8:00 AM 75.2 °F 57.2 °F 53% 29.86 in - North 3.5 mph - N/A   Clear
9:00 AM 77.0 °F 50.0 °F 39% 29.86 in 3.7 mi NE 6.9 mph - N/A   Unknown
10:00 AM 82.4 °F 44.6 °F 26% 29.86 in 2.5 mi NE 6.9 mph - N/A   Haze
11:00 AM 84.2 °F 41.0 °F 22% 29.86 in 1.9 mi NE 6.9 mph - N/A   Haze
12:00 PM 87.8 °F 33.8 °F 15% 29.86 in 1.9 mi East 5.8 mph - N/A   Haze
1:00 PM 89.6 °F 33.8 °F 14% 29.83 in 1.9 mi ESE 4.6 mph - N/A   Haze
2:00 PM 87.8 °F 35.6 °F 16% 29.80 in 1.9 mi ENE 5.8 mph - N/A   Haze
3:00 PM 87.8 °F 32.0 °F 14% 29.80 in 1.9 mi ENE 6.9 mph - N/A   Haze
4:00 PM 86.0 °F 33.8 °F 15% 29.80 in 1.9 mi NNE 4.6 mph - N/A   Haze
5:00 PM 82.4 °F 28.4 °F 14% 29.80 in 1.9 mi NE 4.6 mph - N/A   Haze
6:00 PM 77.0 °F 32.0 °F 19% 29.83 in 1.9 mi NNE 4.6 mph - N/A   Haze
7:00 PM 71.6 °F 30.2 °F 22% 29.83 in 1.9 mi North 4.6 mph - N/A   Haze
8:00 PM 73.4 °F 37.4 °F 27% 29.86 in 3.7 mi North 10.4 mph - N/A   Unknown
9:00 PM 71.6 °F 42.8 °F 35% 29.89 in - North 11.5 mph - N/A   Clear
10:00 PM 71.6 °F 46.4 °F 41% 29.92 in - North 11.5 mph - N/A   Clear
11:00 PM 69.8 °F 42.8 °F 38% 29.92 in - North 10.4 mph - N/A   Clear